AirNav   Air Wisconsin Up To $57,000 Bonus
 
 1172 users online  

07AL Tac X Stagefield Army Heliport
Fort Rucker/Samson, Alabama, USA

GOING TO FORT RUCKER/SAMSON?


FAA INFORMATION EFFECTIVE 22 APRIL 2021

Location

FAA Identifier: 07AL
Lat/Long: 31-07-15.6500N 085-58-38.0700W
31-07.260833N 085-58.634500W
31.1210139,-85.9772417
(estimated)
Elevation: 132 ft. / 40 m (estimated)
Variation: 02W (2000)
From city: 4 miles NE of central business district of the associated city
Time zone: UTC -5 (UTC -6 during Standard Time)
Zip code: 36318

Heliport Operations

Heliport use: Private use. Permission required prior to landing
Activation date: 06/2002
Control tower: no
ARTCC: JACKSONVILLE CENTER
FSS: ANNISTON FLIGHT SERVICE STATION
NOTAMs facility: OZR (NOTAM-D service available)
Attendance: ATTENDED DURG SKED TRNG
RESTRD ACCESS. FOR ACCESS AND/OR TRNG SKED DAYS/TIMES CTC AT&A OFFICER AT 334-255-9764.
Segmented circle: no

Heliport Communications

WX AWOS-3PT at EDN (11 nm N): 118.9 (334-347-3524)

Nearby radio navigation aids

VOR radial/distance  VOR name  Freq  Var
EDNr203/(11.2)ENTERPRISE VOR116.6003W
OZRr238/15.6CAIRNS VOR/DME111.2003W
HEYr231/(22.5)HANCHEY VOR110.6003W
RRSr249/29.7WIREGRASS VORTAC111.6002E

 
NDB name  Hdg/Dist  Freq  Var  ID
RUCKR236/10.421203WOZ --- --..
BOLL WEEVIL182/13.135203WBVG -... ...- --.
LOWE223/18.826903WLOR .-.. --- .-.
HANCHEY230/22.622103WHYE .... -.-- .
JUDD119/23.926402WJUY .--- ..- -.--

Heliport Services

Runway Information

Helipad H1

Dimensions: 6000 x 1200 ft. / 1829 x 366 m
Surface: turf
Operational restrictions: HELIPAD TOTAL AREA: 169 ACRES TURF.
Traffic pattern: leftleft

Heliport Ownership and Management from official FAA records

Ownership: U.S. Army
Owner: US ARMY AVIATION CTR & FORT RUCKER
BLDG 114 NOVOSEL ST
FORT RUCKER, AL 36362
Phone 334-255-9764
Manager: JACK A HOLMES
USAACE G3 AIR
FORT RUCKER, AL 36362
Phone 334-255-9764

Additional Remarks

FOR CD CTC CAIRNS APCH AT 334-255-8402 OR 334-255-8460, WHEN APCH CLSD CTC JACKSONVILLE ARTCC AT 904-845-1592.

Instrument Procedures

There are no published instrument procedures at 07AL.

Some nearby airports with instrument procedures:

33J - Geneva Municipal Airport (7 nm SE)
KEDN - Enterprise Municipal Airport (11 nm N)
KOZR - Cairns Army Airfield (Fort Rucker) (16 nm NE)
0J4 - Florala Municipal Airport (18 nm W)
KLOR - Lowe Army Heliport (Fort Rucker) (18 nm NE)
 
Loc | Ops | Rwys | IFR | FBO | Links
Com | Nav | Svcs | Stats | Notes
Area around 07AL (Tac X Stagefield Army Heliport)
 
Road maps at: MapQuest Bing Google
 
Aerial photo
No photo
 
Sectional chart

 
Airport distance calculator
Flying to Tac X Stagefield Army Heliport? Find the distance to fly.

From to 07AL

Sunrise and sunset
Times for 17-May-2021
 Local
(UTC-5)
 Zulu
(UTC)
Morning civil twilight05:2110:21
Sunrise05:4810:48
Sunset19:3300:33
Evening civil twilight19:5900:59

Current date and time
Zulu (UTC)  17-May-2021 23:18:27
Local (UTC-5)  17-May-2021 18:18:27
 
METAR
KEDN 
11nm N 
172255Z AUTO 10006KT 10SM SCT070 27/15 A3008 RMK AO2 T02660145
KSXS 
16nm NE 
172258Z AUTO 13007KT 10SM CLR 28/13 A3007 RMK AO2 SLP182 T02760133
KOZR 
17nm NE 
172256Z AUTO 10007KT 10SM CLR 28/13 A3007 RMK AO2 SLP183 T02820133
K0J4 
18nm W 
172258Z AUTO 21008KT 10SM BKN050 BKN060 27/16 A3009 RMK AO2 SLP185 T02720156
KLOR 
18nm NE 
172258Z AUTO 09005KT 10SM FEW065 27/13 A3008 RMK AO2 SLP168 T02730131
KHEY 
21nm NE 
172258Z AUTO 11010KT 10SM FEW060 28/13 A3006 RMK AO2 SLP179 T02810134
TAF
KOZR 
17nm NE 
171600Z 1716/1822 14009KT 9999 SCT040 BKN250 QNH3009INS BECMG 1722/1723 13009KT 9999 BKN040 BKN250 QNH3010INS TX28/1720Z TN17/1811Z
NOTAMs
Click for the latest NOTAMs
NOTAMs are issued by the DoD/FAA and will open in a separate window not controlled by AirNav.

 

 
 

Would you like to see your business listed on this page?

 If your business provides an interesting product or service to pilots, flight crews, aircraft, or users of the Tac X Stagefield Army Heliport, you should consider listing it here.  To start the listing process, click on the button below
 
Add a business
 

Other Pages about Tac X Stagefield Army Heliport

Update a link
 
Copyright © AirNav, LLC. All rights reserved. Privacy Policy  Contact